This is the latest recevied weather packets stored in our database for station/object SP3VSS-13. If no packets are shown the sender has not sent any weather packets the latest 10 day(s).
| Time | Temp. | Humidity | Pressure | Rain* | Wind** | Luminosity | Snow |
|---|---|---|---|---|---|---|---|
| 1777155409 | 8.33° C | 60% | 998.9 hPa | - | - | - | - |
| 1777154507 | 8.89° C | 57% | 998.6 hPa | - | - | - | - |
| 1777153607 | 9.44° C | 54% | 998.4 hPa | - | - | - | - |
| 1777152706 | 9.44° C | 54% | 998.1 hPa | - | - | - | - |
| 1777151805 | 10° C | 57% | 997.9 hPa | - | - | - | - |
| 1777150904 | 10.56° C | 59% | 997.8 hPa | - | - | - | - |
| 1777150003 | 11.11° C | 64% | 997.6 hPa | - | - | - | - |
| 1777149102 | 11.11° C | 63% | 997.5 hPa | - | - | - | - |
| 1777148201 | 11.67° C | 63% | 997.4 hPa | - | - | - | - |
| 1777147300 | 12.22° C | 60% | 997 hPa | - | - | - | - |
| 1777146399 | 12.78° C | 55% | 996.8 hPa | - | - | - | - |
| 1777145498 | 13.33° C | 54% | 996.8 hPa | - | - | - | - |
| 1777144597 | 13.89° C | 54% | 996.6 hPa | - | - | - | - |
| 1777143696 | 13.89° C | 53% | 996.4 hPa | - | - | - | - |
| 1777142795 | 13.89° C | 51% | 996.4 hPa | - | - | - | - |
| 1777141893 | 13.89° C | 51% | 996.4 hPa | - | - | - | - |
| 1777140992 | 13.89° C | 50% | 996.2 hPa | - | - | 1 W/m² | - |
| 1777140092 | 13.89° C | 50% | 996.3 hPa | - | - | 3 W/m² | - |
| 1777139190 | 14.44° C | 49% | 996.3 hPa | - | - | 10 W/m² | - |
| 1777138289 | 14.44° C | 47% | 996.3 hPa | - | - | 16 W/m² | - |
| 1777137389 | 15° C | 46% | 996.4 hPa | - | - | 22 W/m² | - |
| 1777136487 | 15° C | 46% | 996.5 hPa | - | - | 27 W/m² | - |
| 1777135586 | 15.56° C | 45% | 996.7 hPa | - | - | 23 W/m² | - |
| 1777134685 | 15.56° C | 44% | 996.9 hPa | - | - | 27 W/m² | - |
| 1777133785 | 15.56° C | 44% | 997 hPa | - | - | 29 W/m² | - |
* Rain since midnight (hover to see other rain measurements)
** Current wind speed in m/s (hover to see current wind gust speed)